Regional Weather Roundup
Issued by NWS Kansas City/Pleasant Hill, MO

Home | Current Version | Previous Version | Graphics & Text | Print | Product List | Glossary Off
Versions: 1 2 3 4 5 6 7 8 9 10 11 12 13 14 15 16 17 18 19 20 21 22 23 24 25 26 27

000
ASUS43 KEAX 041610
RWREAX

WEATHER ROUNDUP FOR EASTERN KANSAS AND NORTHWEST MISSOURI
NATIONAL WEATHER SERVICE KANSAS CITY/PLEASANT HILL MO
1100 AM CDT WED MAY 04 2016

KSZ040-057-103>105-MOZ028-029-037-043-041700-
...KANSAS CITY METROPOLITAN AREA...

CITY           SKY/WX    TMP DP  RH WIND       PRES   REMARKS
K.C. INTL      SUNNY     64  43  46 N8G18     29.99R
K.C. DOWNTOWN  SUNNY     65  42  43 N12       29.97R
LEES SUMMIT    SUNNY     63  43  48 N16       29.97R
OLATHE - IXD   SUNNY    N/A N/A N/A NW17      29.99R
OLATHE - OJC   SUNNY     63  38  39 N16G23    29.98R
LAWRENCE       SUNNY     65  41  41 N17G24    30.00R HAZE

$$

MOZ001>008-011>017-020>025-030>033-038>040-044>046-053-054-041700-
...NORTHERN AND CENTRAL MISSOURI...

CITY           SKY/WX    TMP DP  RH WIND       PRES   REMARKS
ST. JOSEPH     SUNNY     64  42  44 N12       30.00R
MOSBY          SUNNY     63  41  45 N13G18    29.97R
WARRENSBURG    SUNNY     63  43  48 N13G20    29.94R
WHITEMAN AFB   SUNNY     64  47  54 N16       29.92R
CLINTON        SUNNY     64  45  48 NW14G22   29.94R
SEDALIA        SUNNY     66  48  52 N15       29.93R
WARSAW         NOT AVBL
CHILLICOTHE      N/A     65  46  50 VRB5      29.96R
KIRKSVILLE     SUNNY     62  42  47 N16       29.92R

$$

MOZ041-047>049-056>058-063>065-088>090-097-041700-
...EASTERN AND SOUTHERN MISSOURI...

CITY           SKY/WX    TMP DP  RH WIND       PRES   REMARKS
ST. LOUIS INTL MOSUNNY   65  45  48 N10G23    29.80R
SPIRIT OF STL  MOSUNNY   65  47  52 NW14G22   29.80R
COLUMBIA       SUNNY     65  46  50 N21G28    29.87R
JEFFERSON CITY SUNNY     66  44  45 N15G22    29.86R
ROLLA          SUNNY     63  48  58 MISG      29.83R
OSAGE BEACH    SUNNY     64  43  45 NW13G21   29.88R
SPRINGFIELD    SUNNY     66  41  40 NW18G29   29.90R
BRANSON        SUNNY     66  45  45 NW15G21   29.90R
JOPLIN         SUNNY     67  44  43 NW16G24   29.96R
WEST PLAINS    SUNNY     68  43  40 NW18G25   29.85R

$$

IAZ060-094-KSZ022-034>040-054-083-096-NEZ052-066-093-041700-
...KANSAS...SOUTHEAST NEBRASKA AND IOWA...

CITY           SKY/WX    TMP DP  RH WIND       PRES   REMARKS
TOPEKA         SUNNY     66  38  35 NW15      30.02R
MANHATTAN      SUNNY     66  35  31 N10G20    30.05R
EMPORIA        SUNNY     67  36  31 N14G23    30.02R
CHANUTE        SUNNY     68  39  34 NW17G29   30.00R
WICHITA        SUNNY     68  43  40 N15       30.06R
OMAHA          SUNNY     61  42  49 N9        30.05S
LINCOLN        SUNNY     63  37  38 N12       30.08S
FALLS CITY       N/A     63  42  46 N12       30.02R
LAMONI         SUNNY     60  42  51 N14       29.97R
DES MOINES     MOSUNNY   60  35  39 N14G23    29.98R

$$





USA.gov is the U.S. government's official web portal to all federal, state and local government web resources and services.